When you browse on this site, cookies collect data to enhance your experience and personalize the content and advertising you see.
Visit our Privacy Policy to learn more. By continuing to use the site, you agree to this use of cookies and data.
  • In Lithuania
  • List of Countries
  • For 7 days
  • Water Temperature
  • Satellite Maps
  • Weather Map
  • Weather Widgets
  • user-avatar
    Login

    Hourly Weather Tirana

    Today, 18 February, Monday

    Time Temperature Precipitation Wind Pressure Humidity
    00:00 +9°C° 0 mm 1 mps 761 mmHg 64%
    01:00 +9°C° 0 mm 1 mps 761 mmHg 64%
    02:00 +8°C° 0 mm 1 mps 761 mmHg 63%
    03:00 +8°C° 0 mm 1 mps 760 mmHg 63%
    04:00 +8°C° 0 mm 1 mps 760 mmHg 62%
    05:00 +8°C° 0 mm 1 mps 760 mmHg 61%
    06:00 +8°C° 0 mm 1 mps 760 mmHg 61%
    07:00 +8°C° 0 mm 1 mps 760 mmHg 60%
    08:00 +10°C° 0 mm 1 mps 760 mmHg 55%
    09:00 +12°C° 0 mm 1 mps 760 mmHg 49%
    10:00 +14°C° 0 mm 1 mps 760 mmHg 44%
    11:00 +15°C° 0 mm 1 mps 760 mmHg 43%
    12:00 +15°C° 0 mm 1 mps 760 mmHg 42%
    13:00 +16°C° 0 mm 1 mps 759 mmHg 42%
    14:00 +16°C° 0 mm 1 mps 759 mmHg 45%
    15:00 +15°C° 0 mm 1 mps 759 mmHg 48%
    16:00 +15°C° 0 mm 2 mps 759 mmHg 51%
    17:00 +13°C° 0 mm 1 mps 759 mmHg 57%
    18:00 +12°C° 0 mm 1 mps 759 mmHg 63%
    19:00 +10°C° 0 mm 0 mps 759 mmHg 69%
    20:00 +10°C° 0 mm 1 mps 759 mmHg 70%
    21:00 +10°C° 0 mm 1 mps 759 mmHg 70%
    22:00 +10°C° 0 mm 1 mps 759 mmHg 71%
    23:00 +9°C° 0 mm 1 mps 760 mmHg 71%

    Tomorrow, 19 February, Tuesday

    Time Temperature Precipitation Wind Pressure Humidity
    00:00 +9°C° 0 mm 1 mps 760 mmHg 71%
    01:00 +9°C° 0 mm 1 mps 760 mmHg 72%
    02:00 +8°C° 0 mm 2 mps 759 mmHg 71%
    03:00 +7°C° 0 mm 2 mps 759 mmHg 71%
    04:00 +7°C° 0 mm 2 mps 759 mmHg 71%
    05:00 +7°C° 0 mm 2 mps 759 mmHg 70%
    06:00 +7°C° 0 mm 2 mps 759 mmHg 70%
    07:00 +7°C° 0 mm 2 mps 759 mmHg 69%
    08:00 +9°C° 0 mm 2 mps 759 mmHg 63%
    09:00 +12°C° 0 mm 2 mps 759 mmHg 57%
    10:00 +14°C° 0 mm 2 mps 759 mmHg 51%
    11:00 +14°C° 0 mm 2 mps 759 mmHg 50%
    12:00 +15°C° 0 mm 2 mps 759 mmHg 49%
    13:00 +16°C° 0 mm 2 mps 758 mmHg 48%
    14:00 +15°C° 0 mm 2 mps 758 mmHg 51%
    15:00 +15°C° 0 mm 2 mps 758 mmHg 54%
    16:00 +15°C° 0 mm 2 mps 758 mmHg 57%
    17:00 +13°C° 0 mm 1 mps 758 mmHg 64%
    18:00 +12°C° 0 mm 1 mps 758 mmHg 71%
    19:00 +9°C° 0 mm 0 mps 758 mmHg 79%
    20:00 +9°C° 0 mm 0 mps 759 mmHg 80%
    21:00 +10°C° 0 mm 1 mps 759 mmHg 81%
    22:00 +9°C° 0 mm 1 mps 759 mmHg 82%
    23:00 +9°C° 0 mm 1 mps 759 mmHg 82%

    Day after tomorrow, 20 February, Wednesday

    Time Temperature Precipitation Wind Pressure Humidity
    00:00 +9°C° 0 mm 1 mps 759 mmHg 83%
    01:00 +7°C° 0 mm 2 mps 759 mmHg 83%
    02:00 +7°C° 0 mm 2 mps 759 mmHg 82%
    03:00 +7°C° 0 mm 2 mps 759 mmHg 80%
    04:00 +7°C° 0 mm 2 mps 758 mmHg 79%
    05:00 +7°C° 0 mm 2 mps 759 mmHg 77%
    06:00 +7°C° 0 mm 2 mps 759 mmHg 75%
    07:00 +7°C° 0 mm 2 mps 759 mmHg 74%
    08:00 +8°C° 0 mm 2 mps 759 mmHg 68%
    09:00 +10°C° 0 mm 2 mps 759 mmHg 62%
    10:00 +13°C° 0 mm 1 mps 759 mmHg 57%
    11:00 +14°C° 0 mm 1 mps 759 mmHg 57%
    12:00 +14°C° 0 mm 1 mps 759 mmHg 57%
    13:00 +15°C° 0 mm 2 mps 759 mmHg 58%
    14:00 +15°C° 0 mm 2 mps 759 mmHg 60%
    15:00 +14°C° 0 mm 2 mps 759 mmHg 63%
    16:00 +14°C° 0 mm 2 mps 759 mmHg 65%
    17:00 +13°C° 0 mm 2 mps 759 mmHg 72%
    18:00 +12°C° 0 mm 2 mps 760 mmHg 78%
    19:00 +9°C° 0 mm 2 mps 760 mmHg 85%
    20:00 +10°C° 0 mm 1 mps 760 mmHg 86%
    21:00 +10°C° 0 mm 1 mps 761 mmHg 87%
    22:00 +9°C° 0 mm 1 mps 761 mmHg 88%
    23:00 +9°C° 0 mm 1 mps 761 mmHg 87%

    21 February, Thursday

    Time Temperature Precipitation Wind Pressure Humidity
    00:00 +9°C° 0 mm 1 mps 761 mmHg 87%
    01:00 +9°C° 0 mm 1 mps 761 mmHg 87%
    02:00 +8°C° 0 mm 1 mps 761 mmHg 85%
    03:00 +8°C° 0 mm 1 mps 761 mmHg 84%
    04:00 +8°C° 0 mm 1 mps 761 mmHg 83%
    05:00 +8°C° 0 mm 1 mps 761 mmHg 80%
    06:00 +8°C° 0 mm 1 mps 761 mmHg 78%
    07:00 +8°C° 0 mm 1 mps 762 mmHg 75%
    08:00 +10°C° 0 mm 1 mps 762 mmHg 67%
    09:00 +12°C° 0 mm 1 mps 762 mmHg 60%
    10:00 +14°C° 0 mm 1 mps 762 mmHg 52%
    11:00 +15°C° 0 mm 2 mps 762 mmHg 50%
    12:00 +14°C° 0 mm 3 mps 761 mmHg 48%
    13:00 +15°C° 0 mm 4 mps 761 mmHg 45%
    14:00 +15°C° 0 mm 4 mps 761 mmHg 49%
    15:00 +14°C° 0 mm 4 mps 761 mmHg 53%
    16:00 +14°C° 0 mm 4 mps 761 mmHg 57%
    17:00 +12°C° 0 mm 4 mps 761 mmHg 65%
    18:00 +11°C° 0 mm 3 mps 761 mmHg 73%
    19:00 +10°C° 0 mm 3 mps 761 mmHg 81%
    20:00 +9°C° 0 mm 2 mps 762 mmHg 82%
    21:00 +9°C° 0 mm 2 mps 762 mmHg 82%
    22:00 +10°C° 0 mm 1 mps 762 mmHg 83%
    23:00 +10°C° 0 mm 1 mps 762 mmHg 83%

    22 February, Friday

    Time Temperature Precipitation Wind Pressure Humidity
    00:00 +9°C° 0 mm 1 mps 762 mmHg 82%
    01:00 +9°C° 0 mm 1 mps 762 mmHg 82%
    02:00 +9°C° 0 mm 1 mps 761 mmHg 81%
    03:00 +9°C° 0 mm 1 mps 761 mmHg 80%
    04:00 +8°C° 0 mm 1 mps 761 mmHg 79%
    05:00 +8°C° 0 mm 1 mps 761 mmHg 77%
    06:00 +8°C° 0 mm 1 mps 761 mmHg 75%
    07:00 +8°C° 0 mm 1 mps 761 mmHg 73%
    08:00 +10°C° 0 mm 1 mps 761 mmHg 65%
    09:00 +12°C° 0 mm 1 mps 762 mmHg 57%
    10:00 +14°C° 0 mm 1 mps 762 mmHg 50%
    11:00 +15°C° 0 mm 2 mps 761 mmHg 47%
    12:00 +16°C° 0 mm 3 mps 761 mmHg 45%
    13:00 +17°C° 0 mm 4 mps 761 mmHg 43%
    14:00 +17°C° 0 mm 4 mps 760 mmHg 45%
    15:00 +15°C° 0 mm 5 mps 760 mmHg 48%
    16:00 +15°C° 0 mm 6 mps 760 mmHg 51%
    17:00 +14°C° 0 mm 6 mps 760 mmHg 57%
    18:00 +11°C° 0 mm 6 mps 761 mmHg 63%
    19:00 +10°C° 0 mm 6 mps 761 mmHg 70%
    20:00 +10°C° 0 mm 5 mps 761 mmHg 68%
    21:00 +9°C° 0 mm 5 mps 761 mmHg 67%
    22:00 +9°C° 0 mm 5 mps 762 mmHg 66%
    23:00 +9°C° 0 mm 5 mps 762 mmHg 66%

    23 February, Saturday

    Time Temperature Precipitation Wind Pressure Humidity
    00:00 +8°C° 0 mm 5 mps 762 mmHg 66%
    01:00 +8°C° 0 mm 6 mps 762 mmHg 65%
    02:00 +8°C° 0 mm 6 mps 762 mmHg 66%
    03:00 +8°C° 0 mm 6 mps 762 mmHg 67%
    04:00 +6°C° 0 mm 7 mps 762 mmHg 68%
    05:00 +6°C° 0 mm 7 mps 762 mmHg 68%
    06:00 +7°C° 0 mm 6 mps 762 mmHg 68%
    07:00 +7°C° 0 mm 6 mps 762 mmHg 68%
    08:00 +9°C° 0 mm 6 mps 763 mmHg 60%
    09:00 +11°C° 0 mm 6 mps 763 mmHg 52%
    10:00 +14°C° 0 mm 6 mps 763 mmHg 44%
    11:00 +15°C° 0 mm 6 mps 763 mmHg 39%
    12:00 +16°C° 0 mm 6 mps 763 mmHg 35%
    13:00 +16°C° 0 mm 7 mps 762 mmHg 30%
    14:00 +16°C° 0 mm 7 mps 762 mmHg 31%
    15:00 +15°C° 0 mm 8 mps 762 mmHg 32%
    16:00 +15°C° 0 mm 8 mps 762 mmHg 32%
    17:00 +12°C° 0 mm 8 mps 763 mmHg 36%
    18:00 +10°C° 0 mm 8 mps 763 mmHg 40%
    19:00 +9°C° 0 mm 8 mps 763 mmHg 43%
    20:00 +7°C° 0 mm 8 mps 764 mmHg 46%
    21:00 +6°C° 0 mm 7 mps 764 mmHg 49%
    22:00 +6°C° 0 mm 7 mps 764 mmHg 51%
    23:00 +5°C° 0 mm 6 mps 764 mmHg 52%
    Show more